GPS BIIR-18M (32384 NORAD) Tracking and Keplerian Element Data

This shows tracking and keplerian element data for the satellite.

Feedback or suggestion? Click here.




ElementValue
Catalog32384
NameGPS BIIR-18M
Epoch Orbit7756
Epoch Day198.2845216
Epoch Year2018
RAAN28.2416
Inclination56.3985
Eccentricity0.0006124
Argument of Perigee75.7556
Mean Anonmoly282.7467
Mean Motion2.00565209
Decay Rate-7.9E-07
L11 32384U 07062A 18198.28452160 -.00000079 00000-0 00000+0 0 9996
L22 32384 56.3985 28.2416 0006124 75.7556 282.7467 2.00565209 77569

Live tracking and technical data element details for GPS BIIR-18M (NORAD 32384). GPS BIIR-18M can be tracked NOW for your location showing map with azimuth and elevation plus other details from your city location.

Track the satellite on the map from your city or location and see movement details for azimuth, elevation, latitude, longitude, range, height, and movement on the map or in text.







IsCatalogInMostPopularTable: catalog: 32384, numindb: 32
Update: records affected: 1



GetName: 32384 GPS BIIR-18M

Hit Count: updated at: Thu, 19 Jul 2018 03:52:23 GMT